Weather History for Plattsmouth, NE

Change the Weather History Date:

Friday, March 14, 2014

  Actual Average (KOFF) Record (KOFF)
Temperature  
Mean Temperature 50 °F -  
Max Temperature 59 °F 45 °F 80 °F (2012)
Min Temperature 41 °F 26 °F 15 °F (1997)
Degree Days  
Heating Degree Days 15    
Moisture  
Dew Point 18 °F    
Average Humidity 31    
Maximum Humidity 60    
Minimum Humidity 15    
Precipitation  
Precipitation 0.00 in - - ()
Sea Level Pressure  
Sea Level Pressure 29.84 in    
Wind  
Wind Speed 14 mph (WNW)    
Max Wind Speed 28 mph    
Max Gust Speed 36 mph    
Visibility 10 miles    
Events      
Averages and records for this station are not official NWS values.
T = Trace of Precipitation, MM = Missing Value Source: NWS Daily Summary

Daily Weather History Graph

Daily Weather History Graph

Search for Another Location

Airport:

Trip Planner

Search our weather history database for the weather conditions in past years. The results will help you decide how hot, cold, wet, or windy it might be!

Date:

Astronomy

Mar. 14, 2014 Rise Set
Actual Time 7:36 AM CDT 7:29 PM CDT
Civil Twilight 7:09 AM CDT 7:56 PM CDT
Nautical Twilight 6:37 AM CDT 8:28 PM CDT
Astronomical Twilight 6:05 AM CDT 9:01 PM CDT
Moon 5:52 PM CDT (3/14) 6:18 AM CDT (3/14)
Length of Visible Light 12h 47m
Length of Day
11h 52m
Waxing Gibbous, 96% of the Moon is Illuminated
Mar 14
Waxing Gibbous
Mar 16
Full
Mar 23
Last Quarter
Mar 30
New
Apr 7
First Quarter

Hourly Weather History & Observations

Time (CDT) Temp. Windchill Dew Point Humidity Pressure Visibility Wind Dir Wind Speed Gust Speed Precip Events Conditions
12:15 AM 49.6 °F - 19.0 °F 30% 29.68 in 10.0 mi South 18.4 mph - N/A   Clear
12:35 AM 48.4 °F - 19.4 °F 32% 29.67 in 10.0 mi South 16.1 mph - N/A   Clear
12:55 AM 46.9 °F - 19.9 °F 34% 29.66 in 10.0 mi South 16.1 mph - N/A   Clear
1:15 AM 46.9 °F - 19.6 °F 34% 29.65 in 10.0 mi South 16.1 mph - N/A   Clear
1:35 AM 47.5 °F - 19.0 °F 32% 29.64 in 10.0 mi South 17.3 mph - N/A   Clear
1:55 AM 47.8 °F - 18.9 °F 32% 29.64 in 10.0 mi South 17.3 mph - N/A   Clear
2:15 AM 48.9 °F - 18.5 °F 30% 29.64 in 10.0 mi South 18.4 mph - N/A   Clear
2:35 AM 50.0 °F - 18.3 °F 29% 29.64 in 10.0 mi SSW 19.6 mph - N/A   Clear
2:55 AM 48.7 °F - 18.5 °F 30% 29.67 in 10.0 mi SW 10.4 mph 24.2 mph N/A   Clear
3:15 AM 49.8 °F - 17.6 °F 28% 29.67 in 10.0 mi WSW 11.5 mph - N/A   Clear
3:35 AM 46.6 °F - 17.8 °F 32% 29.68 in 10.0 mi West 5.8 mph - N/A   Clear
3:55 AM 43.7 °F 39.7 °F 18.3 °F 36% 29.68 in 10.0 mi West 6.9 mph - N/A   Clear
4:15 AM 42.4 °F 39.6 °F 18.3 °F 38% 29.68 in 10.0 mi West 4.6 mph - N/A   Clear
4:35 AM 42.1 °F 36.1 °F 18.5 °F 39% 29.68 in 10.0 mi West 10.4 mph - N/A   Clear
4:55 AM 42.3 °F 36.3 °F 20.3 °F 42% 29.69 in 10.0 mi WNW 10.4 mph - N/A   Clear
5:15 AM 42.4 °F 36.1 °F 20.3 °F 41% 29.70 in 10.0 mi WNW 11.5 mph - N/A   Clear
5:35 AM 42.1 °F 35.2 °F 21.6 °F 44% 29.71 in 10.0 mi NW 12.7 mph - N/A   Clear
5:55 AM 41.9 °F 35.0 °F 23.4 °F 48% 29.73 in 10.0 mi NW 12.7 mph - N/A   Clear
6:15 AM 41.4 °F 34.3 °F 23.9 °F 50% 29.74 in 10.0 mi NW 12.7 mph - N/A   Clear
6:35 AM 41.0 °F 33.9 °F 26.6 °F 57% 29.76 in 10.0 mi NW 12.7 mph - N/A   Clear
6:55 AM 41.4 °F 34.7 °F 28.2 °F 60% 29.77 in 10.0 mi NW 11.5 mph - N/A   Clear
7:15 AM 41.0 °F 33.5 °F 28.0 °F 60% 29.78 in 10.0 mi NW 13.8 mph - N/A   Clear
7:35 AM 41.7 °F 34.4 °F 26.4 °F 55% 29.80 in 10.0 mi NW 13.8 mph - N/A   Clear
7:55 AM 41.0 °F 33.1 °F 26.1 °F 55% 29.81 in 10.0 mi NW 15.0 mph - N/A   Clear
8:15 AM 41.0 °F 33.5 °F 26.1 °F 55% 29.82 in 10.0 mi NW 13.8 mph - N/A   Clear
8:35 AM 41.7 °F 35.2 °F 26.6 °F 55% 29.84 in 10.0 mi NW 11.5 mph - N/A   Clear
8:55 AM 43.5 °F 37.5 °F 27.1 °F 53% 29.86 in 10.0 mi NW 11.5 mph - N/A   Clear
9:15 AM 45.0 °F 38.5 °F 27.1 °F 50% 29.87 in 10.0 mi NW 13.8 mph 19.6 mph N/A   Clear
9:35 AM 46.8 °F - 26.8 °F 46% 29.88 in 10.0 mi NW 16.1 mph 23.0 mph N/A   Clear
9:55 AM 47.3 °F - 26.4 °F 44% 29.89 in 10.0 mi NW 15.0 mph 25.3 mph N/A   Clear
10:15 AM 48.6 °F - 26.4 °F 42% 29.89 in 10.0 mi NW 16.1 mph 20.7 mph N/A   Clear
10:35 AM 49.6 °F - 25.7 °F 39% 29.90 in 10.0 mi WNW 15.0 mph 20.7 mph N/A   Clear
10:55 AM 50.9 °F - 26.6 °F 39% 29.91 in 10.0 mi WNW 19.6 mph 25.3 mph N/A   Clear
11:15 AM 51.8 °F - 24.6 °F 35% 29.91 in 10.0 mi WNW 20.7 mph 29.9 mph N/A   Clear
11:35 AM 52.5 °F - 22.8 °F 31% 29.91 in 10.0 mi NW 17.3 mph 26.5 mph N/A   Clear
11:55 AM 53.1 °F - 21.2 °F 29% 29.92 in 10.0 mi NW 19.6 mph 26.5 mph N/A   Clear
12:15 PM 54.5 °F - 21.2 °F 27% 29.92 in 10.0 mi WNW 16.1 mph 24.2 mph N/A   Clear
12:35 PM 54.5 °F - 18.7 °F 25% 29.92 in 10.0 mi NW 19.6 mph 31.1 mph N/A   Clear
12:55 PM 55.4 °F - 19.8 °F 25% 29.92 in 10.0 mi WNW 19.6 mph 25.3 mph N/A   Clear
1:15 PM 56.3 °F - 18.1 °F 23% 29.92 in 10.0 mi WNW 19.6 mph 33.4 mph N/A   Clear
1:35 PM 56.7 °F - 13.6 °F 18% 29.92 in 10.0 mi WNW 21.9 mph 35.7 mph N/A   Clear
1:55 PM 57.9 °F - 13.5 °F 17% 29.92 in 10.0 mi NW 27.6 mph 35.7 mph N/A   Clear
2:15 PM 57.7 °F - 13.5 °F 18% 29.92 in 10.0 mi NW 25.3 mph 34.5 mph N/A   Clear
2:35 PM 58.1 °F - 13.6 °F 17% 29.91 in 10.0 mi NW 21.9 mph 34.5 mph N/A   Clear
2:55 PM 58.8 °F - 12.7 °F 16% 29.91 in 10.0 mi NW 21.9 mph 31.1 mph N/A   Clear
3:15 PM 59.2 °F - 10.9 °F 15% 29.91 in 10.0 mi NW 21.9 mph 26.5 mph N/A   Clear
3:35 PM 59.2 °F - 11.3 °F 15% 29.91 in 10.0 mi NW 15.0 mph 28.8 mph N/A   Clear
3:55 PM 59.2 °F - 10.8 °F 15% 29.91 in 10.0 mi WNW 17.3 mph 24.2 mph N/A   Clear
4:15 PM 59.4 °F - 10.6 °F 15% 29.91 in 10.0 mi NW 19.6 mph 27.6 mph N/A   Clear
4:35 PM 59.2 °F - 10.9 °F 15% 29.91 in 10.0 mi WNW 15.0 mph 21.9 mph N/A   Clear
4:55 PM 59.2 °F - 10.9 °F 15% 29.91 in 10.0 mi NW 13.8 mph 24.2 mph N/A   Clear
5:15 PM 59.2 °F - 11.1 °F 15% 29.91 in 10.0 mi WNW 13.8 mph 24.2 mph N/A   Clear
5:35 PM 59.2 °F - 10.8 °F 15% 29.92 in 10.0 mi WNW 12.7 mph 21.9 mph N/A   Clear
5:55 PM 59.0 °F - 10.9 °F 15% 29.92 in 10.0 mi WNW 13.8 mph 20.7 mph N/A   Clear
6:15 PM 58.5 °F - 11.8 °F 16% 29.92 in 10.0 mi NW 11.5 mph - N/A   Clear
6:35 PM 57.7 °F - 11.8 °F 16% 29.92 in 10.0 mi WNW 10.4 mph - N/A   Clear
6:55 PM 56.1 °F - 13.6 °F 19% 29.92 in 10.0 mi WNW 8.1 mph - N/A   Clear
7:15 PM 53.6 °F - 14.0 °F 21% 29.93 in 10.0 mi WNW 4.6 mph - N/A   Clear
7:35 PM 53.1 °F - 13.1 °F 20% 29.94 in 10.0 mi WNW 4.6 mph - N/A   Clear
7:55 PM 50.2 °F - 13.5 °F 23% 29.94 in 10.0 mi WNW 3.5 mph - N/A   Clear
8:15 PM 51.3 °F - 13.5 °F 22% 29.94 in 10.0 mi Calm Calm - N/A   Clear
8:35 PM 52.0 °F - 13.1 °F 21% 29.94 in 10.0 mi Calm Calm - N/A   Clear
8:55 PM 50.0 °F - 13.8 °F 24% 29.94 in 10.0 mi Calm Calm - N/A   Clear
9:15 PM 47.7 °F - 14.0 °F 26% 29.94 in 10.0 mi South 3.5 mph - N/A   Clear
9:35 PM 48.6 °F - 14.2 °F 25% 29.94 in 10.0 mi Calm Calm - N/A   Clear
9:55 PM 48.9 °F - 14.2 °F 25% 29.95 in 10.0 mi Calm Calm - N/A   Clear
10:15 PM 49.3 °F - 14.0 °F 24% 29.95 in 10.0 mi SSE 3.5 mph - N/A   Clear
10:35 PM 43.9 °F 40.5 °F 14.9 °F 31% 29.95 in 10.0 mi SSE 5.8 mph - N/A   Clear
10:55 PM 45.1 °F 42.0 °F 14.7 °F 29% 29.95 in 10.0 mi SSE 5.8 mph - N/A   Clear
11:15 PM 43.7 °F 40.3 °F 15.1 °F 32% 29.95 in 10.0 mi SSE 5.8 mph - N/A   Clear
11:35 PM 43.7 °F 40.3 °F 15.1 °F 32% 29.94 in 10.0 mi SSE 5.8 mph - N/A   Clear
11:55 PM 41.9 °F 38.2 °F 15.8 °F 35% 29.94 in 10.0 mi SSE 5.8 mph - N/A   Clear